Wind_Speed
17 16 15 14 14 14 13 12 12 11 11 11 11 10 10 10 9 8 8 7 7 8 7 7 6 6 6 6 5 4 4 3 3 3 3 3 3 3 3 4 4 4 4
21 19 18 17 16 16 15 15 14 13 13 13 12 12 11 11 10 10 9 8 8 8 8 7 7 7 7 6 6 5 4 4 3 3 3 3 3 4 4 4 4 4 4
23 22 21 20 19 18 18 17 16 15 15 14 14 14 13 12 12 11 11 10 10 9 9 8 7 7 7 7 7 6 5 4 4 4 4 4 4 4 4 4 5 5 5
26 25 24 22 21 20 20 19 18 17 17 16 16 15 15 14 14 13 12 11 11 10 10 9 9 8 7 7 7 7 6 6 5 5 5 5 5 4 5 5 5 5 6
28 27 26 25 24 23 22 21 20 19 19 18 17 17 17 16 15 15 14 13 13 12 11 11 10 9 9 8 8 8 8 7 7 6 6 6 6 6 6 6 7 7 7
29 29 28 27 26 25 24 23 22 21 20 19 19 18 18 18 17 16 16 15 15 14 13 12 12 11 10 10 9 9 9 9 8 8 8 7 7 7 7 7 7 8 8
29 30 29 29 28 27 26 25 24 23 22 21 20 20 20 19 19 18 17 17 17 16 15 14 13 13 12 11 11 10 10 10 10 9 9 9 8 8 8 8 8 8 9
28 29 31 30 29 28 27 26 25 25 24 23 22 21 21 21 20 19 19 19 19 18 17 16 15 15 14 13 13 12 12 11 11 11 10 10 10 9 10 10 9 9 10
28 29 30 30 30 29 29 28 27 26 25 25 24 23 22 22 22 21 21 21 20 20 19 18 17 17 16 15 14 13 13 13 13 13 12 12 11 11 11 11 11 11 11
28 29 30 31 31 30 30 29 28 27 26 26 26 25 24 24 23 23 22 22 22 21 21 20 19 19 18 17 16 15 15 15 14 14 14 14 13 13 13 12 12 12 12
29 29 30 31 31 31 31 30 30 29 28 28 27 26 26 25 24 24 24 23 23 23 22 22 21 21 20 19 18 17 17 16 16 16 15 15 15 15 14 14 14 14 14
29 30 31 32 32 32 31 31 31 30 30 29 28 27 27 26 26 26 25 25 25 24 24 24 23 23 21 21 20 19 19 18 17 17 17 16 16 16 16 16 16 16 16
29 30 32 33 33 33 32 31 32 31 31 30 29 29 29 28 28 28 27 26 26 26 25 25 25 24 23 23 22 21 20 20 19 18 18 18 18 18 18 18 17 17 18
28 29 31 33 34 34 33 32 32 32 31 31 31 31 30 30 30 30 30 29 28 27 27 26 26 26 25 25 24 23 22 21 21 20 20 19 19 20 20 20 19 19 19
27 28 31 32 34 35 34 34 33 33 32 32 32 32 32 32 31 31 31 31 30 29 28 28 28 27 27 27 26 25 24 23 23 22 22 22 21 21 21 22 22 22 22
26 27 30 31 33 35 35 34 35 35 34 33 33 34 33 33 33 32 32 32 33 32 31 30 30 30 29 28 28 27 26 25 25 24 24 23 23 23 23 23 24 24 24
26 27 28 31 33 35 36 36 35 35 35 35 35 35 35 35 34 34 34 34 34 34 33 33 31 31 31 30 30 30 29 28 27 27 26 26 26 25 25 25 26 26 26
26 27 28 30 33 35 36 36 36 36 36 35 36 37 37 37 37 36 36 36 36 36 35 34 34 33 33 33 32 32 31 30 29 29 29 28 28 28 28 28 27 28 28
25 26 28 29 32 34 35 35 35 37 37 36 36 38 39 39 39 37 37 37 38 38 38 37 36 35 35 35 34 34 33 32 31 31 31 31 31 30 30 30 30 30 31
25 25 26 28 31 33 35 35 35 35 35 36 36 37 38 39 39 38 38 37 38 39 38 38 38 37 35 35 36 36 36 35 34 33 34 34 33 33 33 32 33 33 33
26 26 27 27 29 31 34 34 33 33 34 35 35 36 37 37 37 39 40 39 38 39 40 39 39 38 37 35 36 38 37 37 36 36 36 36 36 35 35 35 35 35 36
27 26 28 29 29 30 32 33 34 33 33 34 35 35 36 37 37 38 40 41 40 39 39 38 39 38 37 37 37 39 39 39 39 38 38 37 37 37 37 37 37 37 37
26 27 27 28 29 30 31 32 33 33 32 33 35 35 35 36 36 37 38 39 39 39 40 41 40 39 38 39 38 38 38 38 39 39 39 39 39 39 39 39 39 39 39
26 27 28 29 30 30 30 30 32 32 32 33 35 36 36 35 36 35 36 38 39 40 40 40 40 39 38 38 38 38 39 40 40 40 40 40 40 41 41 41 41 41 41
25 27 28 28 30 30 30 30 31 31 32 32 34 35 36 36 35 35 35 36 38 39 39 39 39 40 41 41 39 39 39 40 41 40 41 42 42 42 43 43 43 43 44
25 26 27 27 29 29 29 30 31 32 32 32 33 34 34 34 35 35 36 36 37 38 38 38 39 40 41 41 41 41 40 40 41 41 42 42 43 43 44 44 45 45 45
Wind_Direction
244 243 243 242 240 240 239 240 240 241 241 241 242 242 240 239 237 236 236 233 227 223 221 223 225 226 228 232 238 245 251 254 249 243 243 246 246 253 261 267 271 277 283
244 243 242 241 241 240 240 240 240 241 242 242 243 243 241 240 239 236 237 236 231 227 227 229 230 230 233 237 241 246 250 250 245 243 245 250 257 264 267 269 275 280 283
244 243 242 241 240 240 240 239 240 241 240 241 243 244 243 242 242 239 237 236 235 233 232 236 236 234 237 241 242 244 247 247 247 250 252 256 264 271 272 271 276 279 283
244 243 242 241 240 239 240 240 241 241 241 241 242 244 244 243 243 242 239 238 237 237 235 237 239 239 240 241 242 243 246 248 249 252 255 260 267 276 278 275 274 277 281
243 243 242 241 240 240 239 241 241 241 241 241 242 244 244 243 242 242 240 239 238 239 240 240 240 240 242 242 243 245 246 248 251 254 258 262 267 273 277 277 275 278 280
243 242 241 241 240 240 240 241 242 241 241 242 242 243 243 243 242 242 241 240 239 240 241 244 242 241 244 245 245 245 246 249 252 256 260 263 265 269 276 279 278 277 279
243 241 240 240 240 240 240 240 241 241 241 241 242 243 243 243 242 242 242 241 241 241 242 244 246 245 246 247 248 248 248 251 254 258 261 264 266 269 274 277 278 278 280
243 242 240 240 240 240 239 240 240 241 242 241 241 242 242 242 242 243 243 244 244 243 244 244 245 247 247 248 250 249 249 252 254 257 261 264 265 269 272 274 275 277 280
242 241 241 239 239 239 238 238 239 240 241 242 241 241 242 242 243 243 244 244 244 244 244 244 245 247 248 249 251 252 251 253 255 256 259 261 264 267 270 272 273 276 278
242 241 241 240 239 239 238 238 238 239 240 241 241 241 242 243 243 243 244 244 243 244 244 244 246 247 249 250 251 253 253 254 255 256 257 259 263 266 269 271 272 273 275
243 242 240 239 239 239 238 238 239 239 239 240 241 242 242 243 244 243 243 243 243 244 244 244 246 247 249 251 253 255 255 254 255 257 257 258 261 265 268 270 271 272 274
243 241 240 239 238 238 238 238 238 239 239 239 240 241 242 244 244 243 242 243 243 244 245 245 246 247 249 251 253 255 256 255 254 256 258 260 262 264 267 269 270 271 273
243 242 241 239 238 238 239 239 239 240 239 238 239 241 242 243 243 243 242 243 244 245 246 246 246 247 249 250 253 255 257 258 256 258 260 261 263 265 266 268 269 270 272
243 242 242 240 237 236 238 239 239 239 239 239 239 240 242 243 244 243 242 243 244 245 246 247 247 248 249 250 251 253 255 258 258 258 261 263 265 266 267 268 269 270 272
244 243 242 240 237 236 236 239 240 240 240 240 240 241 242 243 244 243 243 243 244 246 246 247 247 248 249 250 251 252 253 255 258 258 261 263 265 267 268 268 270 271 272
245 243 242 241 238 236 235 237 239 240 241 241 242 242 242 243 243 243 243 244 244 245 246 248 248 248 249 250 252 253 253 254 257 260 261 263 266 267 268 268 269 271 272
245 243 243 241 238 237 237 237 238 240 241 241 242 242 243 243 243 243 243 244 245 245 245 246 248 249 248 249 250 252 253 254 257 260 261 263 265 267 268 268 269 271 272
246 244 243 242 239 237 239 240 239 240 241 244 242 242 243 243 244 244 244 244 245 245 245 246 247 248 248 249 249 251 253 254 256 259 260 262 264 266 267 268 269 271 273
249 245 243 243 241 239 240 241 241 242 243 246 245 242 243 243 243 244 243 244 245 245 244 245 246 247 248 249 249 250 252 254 256 259 260 261 263 265 267 269 270 271 273
251 249 248 248 244 241 241 243 244 244 244 245 247 244 243 243 242 242 243 244 245 244 244 244 244 246 248 250 251 251 252 253 255 259 260 261 262 264 266 268 271 272 273
254 253 252 249 247 246 244 244 244 244 243 243 245 246 244 243 243 243 244 244 245 244 243 243 243 245 246 248 251 251 252 253 255 259 261 261 262 264 266 268 271 272 273
257 257 254 252 249 246 244 244 244 245 243 243 244 245 245 245 246 246 246 245 245 245 244 245 245 246 246 249 250 252 254 255 256 258 260 262 263 265 266 268 271 272 273
257 256 254 253 251 247 245 246 245 245 245 244 244 245 245 245 247 247 247 248 248 247 246 246 248 249 249 249 252 253 255 255 257 258 260 263 264 265 266 268 271 273 273
258 256 255 253 251 249 248 250 248 246 245 245 245 246 247 246 247 247 248 249 249 249 249 248 249 250 251 251 252 253 254 255 258 259 261 263 265 267 268 269 271 272 273
260 257 255 254 250 250 251 252 251 248 247 247 248 248 247 248 248 249 249 250 249 250 250 249 249 251 252 253 254 255 257 257 258 259 261 262 265 267 268 270 271 273 273
260 256 255 254 251 250 251 253 251 249 249 249 248 247 246 246 247 248 249 250 251 250 249 249 250 251 252 254 256 257 258 259 259 260 261 262 264 266 268 270 272 274 274
Height
5850 5851 5852 5853 5853 5854 5854 5855 5856 5856 5857 5857 5858 5858 5859 5859 5859 5860 5860 5860 5860 5861 5861 5861 5861 5861 5862 5862 5862 5862 5862 5862 5862 5861 5861 5861 5861 5861 5861 5861 5860 5860 5860
5847 5848 5849 5849 5850 5851 5852 5852 5853 5854 5855 5855 5856 5856 5857 5857 5858 5858 5858 5859 5859 5859 5860 5860 5860 5860 5861 5861 5861 5861 5861 5861 5861 5861 5860 5860 5860 5860 5860 5860 5860 5859 5859
5842 5844 5845 5846 5847 5847 5848 5849 5850 5851 5852 5853 5853 5854 5854 5855 5856 5856 5857 5857 5857 5858 5858 5859 5859 5859 5859 5860 5860 5860 5860 5860 5860 5860 5860 5859 5859 5859 5859 5859 5858 5858 5858
5837 5839 5840 5841 5842 5844 5845 5846 5847 5848 5849 5850 5850 5851 5852 5852 5853 5854 5854 5855 5856 5856 5857 5857 5858 5858 5858 5858 5858 5859 5859 5859 5859 5859 5859 5859 5858 5858 5858 5857 5857 5857 5857
5832 5833 5835 5837 5838 5839 5840 5842 5843 5844 5845 5846 5847 5848 5849 5849 5850 5851 5852 5853 5853 5854 5855 5855 5856 5856 5857 5857 5857 5857 5857 5857 5857 5857 5857 5857 5857 5857 5856 5856 5856 5856 5855
5826 5827 5829 5831 5833 5834 5836 5837 5839 5840 5841 5842 5843 5844 5845 5846 5847 5848 5849 5850 5851 5852 5852 5853 5854 5854 5855 5855 5855 5856 5856 5856 5856 5856 5856 5856 5856 5855 5855 5855 5854 5854 5854
5819 5821 5823 5825 5827 5829 5831 5832 5834 5835 5837 5838 5839 5840 5842 5842 5843 5844 5845 5847 5848 5849 5850 5851 5851 5852 5853 5853 5853 5854 5854 5854 5854 5854 5854 5854 5854 5854 5853 5853 5853 5852 5852
5812 5814 5816 5819 5821 5823 5825 5827 5829 5830 5832 5833 5835 5836 5837 5839 5840 5841 5842 5843 5844 5846 5847 5848 5848 5849 5850 5851 5851 5851 5852 5852 5852 5852 5852 5852 5852 5852 5851 5851 5851 5850 5850
5806 5808 5810 5812 5814 5817 5819 5821 5823 5825 5827 5828 5830 5831 5833 5834 5835 5837 5838 5839 5841 5842 5843 5844 5845 5846 5847 5848 5848 5849 5849 5849 5850 5850 5850 5850 5850 5849 5849 5849 5848 5848 5848
5799 5801 5803 5805 5808 5810 5813 5815 5817 5819 5821 5823 5825 5826 5828 5829 5831 5832 5834 5835 5836 5838 5839 5840 5842 5843 5844 5845 5845 5846 5846 5847 5847 5847 5847 5847 5847 5847 5846 5846 5846 5845 5845
5792 5794 5796 5798 5801 5804 5806 5808 5810 5812 5814 5817 5819 5821 5823 5824 5826 5827 5829 5830 5832 5833 5835 5836 5837 5839 5840 5841 5842 5842 5843 5843 5844 5844 5844 5844 5844 5844 5844 5843 5843 5843 5842
5784 5786 5789 5791 5794 5796 5799 5801 5803 5806 5808 5810 5813 5815 5817 5819 5820 5822 5823 5825 5827 5828 5830 5832 5833 5834 5835 5837 5838 5838 5839 5839 5840 5840 5840 5840 5840 5840 5840 5840 5840 5839 5839
5777 5778 5781 5784 5787 5790 5792 5794 5797 5799 5801 5804 5806 5808 5811 5813 5815 5816 5818 5820 5821 5823 5825 5826 5828 5829 5831 5832 5833 5834 5835 5835 5836 5836 5836 5836 5837 5836 5836 5836 5836 5836 5835
5769 5771 5774 5776 5779 5782 5785 5787 5789 5792 5795 5797 5799 5801 5804 5806 5808 5810 5812 5814 5816 5818 5819 5821 5822 5824 5825 5827 5828 5829 5830 5831 5831 5832 5832 5832 5832 5832 5832 5832 5832 5831 5831
5762 5763 5766 5768 5771 5774 5777 5779 5782 5785 5787 5790 5792 5794 5796 5799 5801 5803 5806 5808 5810 5811 5813 5815 5816 5818 5819 5821 5822 5824 5825 5825 5826 5827 5827 5827 5828 5827 5827 5827 5827 5827 5826
5754 5755 5757 5760 5763 5765 5768 5771 5773 5777 5779 5782 5784 5786 5789 5791 5794 5796 5798 5800 5802 5804 5806 5808 5810 5811 5813 5815 5816 5818 5819 5820 5821 5821 5822 5822 5822 5822 5822 5822 5822 5821 5821
5747 5748 5749 5752 5754 5757 5760 5763 5765 5768 5771 5774 5775 5778 5780 5783 5785 5788 5790 5792 5794 5796 5799 5801 5803 5805 5806 5808 5810 5811 5812 5814 5815 5815 5816 5816 5816 5817 5816 5816 5816 5816 5815
5739 5741 5742 5744 5746 5749 5752 5754 5757 5759 5762 5764 5766 5769 5771 5774 5777 5779 5782 5784 5786 5788 5790 5793 5795 5797 5799 5801 5802 5804 5806 5807 5808 5809 5809 5810 5810 5810 5810 5810 5810 5809 5809
5732 5733 5734 5736 5738 5741 5743 5746 5748 5750 5752 5755 5757 5759 5762 5765 5767 5770 5772 5775 5777 5779 5781 5784 5787 5789 5791 5793 5795 5797 5798 5800 5801 5801 5802 5802 5803 5803 5803 5803 5803 5803 5802
5725 5726 5727 5729 5730 5732 5735 5737 5739 5741 5743 5746 5748 5750 5753 5755 5758 5761 5763 5766 5767 5770 5772 5775 5778 5781 5783 5785 5787 5789 5790 5792 5793 5794 5794 5795 5795 5796 5796 5796 5796 5795 5794
5718 5719 5720 5721 5723 5724 5726 5728 5730 5732 5735 5738 5740 5741 5744 5747 5749 5752 5754 5756 5759 5761 5764 5767 5770 5772 5775 5777 5779 5780 5781 5783 5785 5786 5786 5787 5787 5787 5788 5788 5787 5787 5786
5711 5712 5713 5714 5715 5717 5719 5720 5722 5725 5727 5730 5732 5733 5736 5738 5741 5743 5746 5748 5750 5752 5755 5758 5761 5764 5766 5768 5770 5772 5773 5775 5776 5777 5778 5778 5779 5779 5779 5779 5779 5778 5778
5704 5705 5706 5707 5708 5709 5711 5713 5715 5717 5719 5722 5724 5726 5728 5730 5733 5735 5737 5739 5741 5744 5746 5749 5752 5755 5757 5759 5761 5763 5764 5766 5767 5768 5768 5769 5770 5770 5770 5770 5770 5769 5768
5697 5698 5699 5700 5701 5703 5704 5706 5708 5710 5712 5714 5716 5718 5720 5722 5724 5726 5728 5731 5733 5735 5738 5740 5743 5746 5748 5750 5751 5753 5755 5757 5758 5759 5760 5760 5760 5760 5761 5760 5760 5759 5759
5691 5691 5691 5692 5694 5696 5698 5699 5701 5703 5705 5706 5708 5709 5712 5713 5715 5718 5720 5722 5725 5727 5730 5732 5734 5736 5739 5741 5742 5743 5745 5746 5748 5749 5750 5750 5751 5751 5750 5750 5750 5749 5748
5683 5684 5684 5686 5687 5689 5691 5692 5694 5696 5697 5698 5700 5701 5703 5706 5708 5710 5712 5714 5716 5719 5721 5723 5725 5727 5729 5731 5733 5734 5735 5736 5737 5738 5739 5740 5740 5740 5740 5740 5739 5738 5737